Temperature
24 24 23 24 25 25 25 25 25 26 26 25 25 24 25 25 24 24 24 23 23 22 21 21 20 20 19 19 19 18 18 18 17 17 17 17 16 16 16 16 16 16 16 16
24 24 25 26 26 25 25 25 25 25 26 25 25 25 25 25 25 24 24 23 23 22 21 21 20 20 19 19 19 18 18 18 17 17 17 16 16 16 16 16 16 16 16 16
24 25 25 25 25 25 25 24 24 24 25 25 24 24 24 25 25 25 24 24 23 22 21 21 20 20 19 19 19 19 18 17 17 17 17 16 16 16 16 16 16 16 16 16
25 25 25 25 25 25 24 25 25 24 23 23 24 22 24 25 24 24 24 24 24 23 22 21 20 20 19 19 19 19 18 18 17 17 17 16 16 16 16 16 16 16 16 16
24 25 24 24 24 25 24 25 25 24 23 23 24 23 24 25 24 24 24 24 23 23 22 21 20 20 19 19 19 18 18 17 17 17 17 16 16 16 16 16 16 15 16 16
25 25 25 25 25 25 25 24 24 24 23 22 24 23 23 24 24 24 24 24 23 23 22 21 20 20 19 19 18 18 18 17 17 17 17 16 16 16 16 16 16 16 16 16
24 24 25 25 24 25 24 23 22 22 21 22 25 24 24 25 25 25 24 24 23 23 22 21 20 19 19 19 18 18 17 17 17 17 17 16 16 16 16 16 16 16 16 16
23 23 25 25 24 24 24 23 22 21 22 23 24 24 24 26 25 25 24 24 23 22 22 21 20 19 19 18 18 18 17 17 17 17 17 17 16 16 16 16 16 16 16 16
24 23 25 25 25 24 23 23 24 23 23 22 23 24 24 25 24 24 24 23 23 22 21 21 20 19 19 18 18 18 17 17 17 17 17 17 16 16 16 16 16 16 16 16
25 23 24 24 24 24 24 24 23 22 21 21 23 23 23 23 23 24 23 23 22 22 21 21 20 19 19 18 18 17 17 17 17 17 17 17 16 16 16 16 16 16 16 16
25 23 23 24 23 23 23 23 23 22 22 21 21 22 24 23 23 23 23 23 22 22 21 20 20 19 19 18 18 17 17 17 17 17 17 16 16 16 16 16 16 16 16 16
24 23 23 23 24 24 24 23 23 21 22 22 21 22 24 24 24 23 23 23 22 21 20 20 20 19 18 18 18 17 17 17 17 17 17 17 16 16 16 16 16 16 16 16
23 23 22 22 22 23 23 23 23 22 22 21 21 22 24 24 23 23 23 22 22 21 20 20 19 19 18 18 18 17 17 17 17 17 17 17 16 16 16 16 16 16 16 16
22 22 22 21 22 22 22 23 23 22 21 21 22 22 23 23 23 23 22 22 21 21 20 20 19 19 18 18 18 18 17 17 17 17 17 17 17 17 16 16 16 16 16 16
22 21 23 23 24 23 23 23 23 22 22 22 22 23 23 23 23 23 22 22 21 21 20 20 19 19 18 18 18 18 17 17 17 17 17 17 17 16 16 16 16 16 16 16
21 21 22 22 23 23 23 23 23 23 23 23 23 23 24 24 24 23 22 22 21 21 20 20 19 19 19 18 18 18 18 17 17 17 17 16 16 16 16 16 16 16 16 16
20 20 20 21 22 22 21 23 23 23 23 23 22 23 24 24 23 23 22 22 21 21 20 20 19 19 19 18 18 18 18 17 17 17 17 16 16 16 16 16 16 16 16 16
20 20 20 20 21 20 22 24 24 23 23 23 23 24 24 23 23 22 22 21 21 20 20 20 19 19 19 18 18 18 18 17 17 17 17 16 16 16 16 16 16 16 16 15
20 19 19 19 19 20 22 24 24 23 23 24 23 24 23 23 23 22 22 21 21 20 20 20 19 19 19 19 18 18 18 18 17 17 17 16 16 16 16 16 16 16 15 15
20 20 19 18 18 19 21 23 24 23 22 23 23 23 23 23 21 21 21 21 20 20 20 19 19 19 19 19 18 18 18 18 17 17 17 16 16 16 16 16 16 15 15 15
18 18 18 18 18 20 22 23 23 21 21 22 23 23 22 22 21 21 21 20 20 20 19 19 19 19 19 19 18 18 18 18 17 17 17 16 16 16 16 16 15 15 15 15
18 18 18 18 18 19 22 22 22 22 22 22 22 22 22 21 21 21 20 20 19 19 19 19 18 18 18 19 18 18 18 17 17 17 17 16 16 16 15 15 15 15 15 15
19 19 19 19 19 21 22 22 22 22 22 22 21 21 21 21 21 20 20 19 19 19 18 18 18 18 18 18 18 18 17 17 17 17 16 16 16 15 15 15 15 15 15 14
19 20 20 20 20 21 21 21 21 21 21 21 21 21 21 20 20 19 19 19 18 18 18 18 18 18 18 18 18 18 17 17 17 16 16 16 15 15 15 15 15 14 14 14
18 18 18 19 20 21 21 20 20 20 20 20 20 20 20 20 19 19 18 18 18 18 18 17 17 17 17 17 17 17 17 17 16 16 16 15 15 15 15 15 14 14 14 14
18 18 18 18 19 20 20 20 20 19 19 19 19 19 19 19 19 18 18 18 18 17 17 17 17 17 17 17 17 17 17 16 16 16 15 15 15 15 14 14 14 14 14 14
Wind_Speed
8 8 8 7 8 8 6 7 7 3 1 3 6 6 6 8 8 7 8 8 9 9 9 9 9 9 8 7 6 8 7 6 5 2 3 3 3 2 3 3 5 5 5 5
7 9 8 6 6 8 9 7 6 3 3 5 6 7 6 7 9 9 9 9 9 10 10 10 10 9 9 8 7 8 7 6 6 3 2 3 3 3 4 3 4 5 5 5
10 4 4 6 7 7 9 7 6 6 6 7 7 7 8 7 8 7 7 8 10 12 12 12 11 9 9 9 7 7 8 7 7 5 3 3 3 2 3 3 3 3 4 5
8 6 5 7 8 8 7 5 5 6 7 5 6 4 4 6 8 8 7 7 7 10 12 12 11 10 10 9 7 7 8 7 7 6 3 3 3 3 3 3 3 3 4 5
6 6 7 8 7 6 5 6 6 8 9 9 8 6 3 4 6 7 7 8 7 8 11 12 12 10 9 8 7 6 8 8 7 6 4 2 3 2 3 3 4 4 3 3
9 7 7 7 6 5 4 7 8 8 7 7 9 7 2 3 4 4 5 7 8 8 9 11 11 10 9 9 8 7 8 8 6 5 5 3 4 3 4 4 3 3 2 2
11 10 9 7 6 6 6 5 3 4 5 5 4 4 2 4 4 3 3 4 7 8 9 10 12 11 10 10 9 8 8 8 7 5 5 5 4 3 4 4 3 3 3 2
10 9 9 7 7 5 7 7 4 3 3 3 2 3 3 6 6 4 3 3 6 8 9 10 11 11 11 11 10 9 9 8 7 5 5 5 4 2 3 3 4 3 3 3
6 6 7 7 6 7 6 7 7 7 8 6 3 2 4 6 5 3 3 4 6 7 8 10 11 11 11 11 10 10 10 9 8 6 4 4 4 4 3 3 4 3 3 3
7 5 7 8 7 10 8 6 4 4 4 5 4 3 2 4 3 3 3 3 6 7 8 10 11 11 11 10 9 10 10 9 8 7 5 4 3 4 4 3 2 3 4 4
10 8 6 8 10 9 9 8 6 5 5 4 3 1 2 3 3 3 3 3 5 7 6 8 9 10 11 11 10 9 10 9 8 7 6 5 4 4 4 3 3 3 3 4
9 7 8 8 7 8 9 9 8 6 5 5 5 1 3 3 3 2 3 4 6 7 7 7 8 9 10 11 10 10 9 9 8 7 7 6 5 5 5 4 3 3 3 4
6 7 7 6 7 9 9 8 8 7 6 6 5 2 4 3 4 4 4 4 5 7 7 7 8 8 9 9 9 9 9 9 8 8 7 7 6 5 6 5 4 3 3 3
5 9 10 9 6 7 9 10 10 10 7 7 7 3 2 2 4 5 5 5 5 6 7 7 7 8 8 9 9 9 9 9 9 8 7 7 7 6 6 6 5 3 3 3
7 11 13 11 9 9 11 11 12 13 12 10 9 6 4 4 5 6 6 6 6 6 7 7 7 8 8 8 8 9 9 9 9 9 7 7 7 6 5 6 5 4 3 4
9 10 12 13 12 11 13 13 14 14 13 13 11 8 3 2 4 4 6 6 6 6 7 7 7 8 9 9 8 9 9 9 9 9 8 7 7 7 6 6 6 5 4 3
8 10 11 12 11 11 13 13 13 11 12 11 11 7 3 2 2 2 4 5 5 5 6 7 7 8 9 10 9 9 10 9 10 10 9 8 7 7 6 6 6 6 4 4
10 10 7 10 10 12 8 6 8 9 9 9 7 4 3 2 2 2 3 4 4 5 5 6 6 6 7 9 10 9 10 10 10 9 9 9 9 8 7 6 7 6 5 5
12 9 7 8 11 10 9 7 8 7 7 6 6 5 4 3 3 3 3 3 3 4 5 5 5 5 7 8 10 9 10 10 10 9 9 10 9 9 8 7 7 6 6 5
12 11 9 8 9 9 7 4 3 6 7 4 4 3 4 5 4 3 4 4 3 4 4 4 4 4 6 7 9 9 9 10 10 9 9 9 10 9 9 8 7 5 6 6
13 12 13 11 10 7 5 4 4 6 3 2 3 2 2 3 2 2 4 5 4 4 4 4 4 4 4 6 8 8 8 9 9 8 8 9 9 9 8 7 6 6 6 6
12 10 12 11 11 8 5 5 5 1 1 2 2 1 1 1 2 3 4 5 4 4 4 4 4 4 4 6 7 8 7 7 9 9 9 8 8 8 8 7 6 6 6 6
11 9 6 7 6 3 2 2 1 1 0 1 1 0 0 1 3 4 4 4 4 3 3 4 4 4 4 5 6 8 7 7 9 9 9 8 8 7 7 8 7 6 6 5
7 7 8 8 7 6 4 2 2 0 1 0 1 0 0 2 3 3 3 4 4 3 3 3 4 5 4 4 5 6 7 8 9 9 8 8 8 7 7 6 6 5 5 5
5 4 7 9 7 5 5 4 3 2 0 0 0 0 1 2 3 3 2 4 4 4 3 3 4 5 5 5 5 6 7 8 8 8 8 8 7 7 6 5 4 5 4 4
8 8 8 7 5 4 3 3 3 2 2 1 1 1 1 2 3 2 2 3 4 4 4 4 4 4 5 5 6 6 7 8 8 7 7 6 6 6 6 7 5 7 6 8
Wind_Direction
214 223 227 226 230 266 279 271 273 279 233 248 256 253 227 198 203 210 192 182 179 173 162 152 144 138 136 135 135 132 137 130 118 98 99 102 100 91 82 81 73 60 58 70
219 228 234 248 251 263 274 274 285 295 293 273 265 261 242 209 206 208 203 188 182 172 160 155 157 156 154 153 158 156 145 129 116 102 112 125 115 106 94 77 67 60 58 52
228 219 219 238 251 258 265 269 281 293 296 269 267 260 240 210 206 202 211 199 184 174 168 165 167 159 155 157 166 149 133 130 130 127 87 84 84 89 94 94 75 59 63 50
235 229 238 241 245 252 260 276 281 280 278 267 249 270 240 202 190 193 198 206 192 175 171 166 162 160 163 160 158 146 138 133 123 117 110 122 113 111 116 117 119 95 70 69
232 226 236 242 249 263 277 291 270 266 271 276 264 262 242 183 181 187 188 194 189 175 168 163 160 162 161 153 144 138 127 121 118 121 122 122 116 125 120 115 117 112 96 88
241 232 236 244 245 253 263 273 264 248 258 258 247 245 240 193 169 171 175 183 180 173 164 158 155 152 149 142 137 132 127 125 128 135 149 150 137 149 129 120 121 125 118 97
228 225 220 225 233 223 236 255 255 222 220 237 228 229 195 104 94 112 146 173 170 164 158 156 154 156 152 148 147 144 141 138 144 163 172 169 171 168 138 139 134 129 124 118
223 221 206 204 221 231 232 240 258 275 272 290 242 228 115 97 92 101 117 141 149 156 160 160 159 158 155 154 154 157 153 153 160 180 183 168 153 137 131 137 133 138 136 141
232 217 180 190 216 234 237 244 262 286 293 288 244 164 121 105 96 105 132 136 142 154 161 160 160 161 158 158 161 164 159 162 167 180 173 153 156 150 143 132 125 136 142 142
257 246 191 192 213 224 243 257 257 261 284 273 264 240 187 138 138 151 140 144 147 155 163 163 162 162 161 159 163 165 166 167 167 172 166 162 147 131 123 116 128 142 142 134
250 245 211 199 208 218 221 235 239 248 259 276 288 322 58 118 135 140 139 135 144 145 150 156 160 162 159 158 163 170 171 165 165 169 160 156 147 142 139 139 142 142 139 131
237 252 234 221 209 222 230 232 234 241 259 261 273 253 122 115 107 121 136 131 135 139 146 152 154 157 160 162 170 173 170 166 166 163 160 165 156 160 156 152 162 151 141 138
246 241 234 218 213 210 226 231 237 247 259 260 258 224 140 150 143 149 135 129 128 137 144 149 151 159 163 166 171 170 168 165 162 161 168 164 157 169 164 157 159 158 145 144
264 250 244 238 232 218 228 234 237 241 244 254 259 247 191 167 142 140 141 143 140 147 152 153 156 161 162 168 173 168 167 160 161 163 171 165 166 175 165 154 155 157 142 128
239 252 253 253 250 247 240 235 234 241 244 253 260 259 235 174 164 156 160 159 159 167 164 161 165 166 165 168 171 166 165 161 163 165 173 169 165 161 152 145 144 142 130 126
232 253 258 255 250 251 253 243 235 236 242 252 260 264 265 191 164 163 166 161 171 180 175 167 171 173 174 173 176 166 164 164 163 168 174 168 165 154 150 147 140 135 127 123
229 242 252 255 252 251 248 235 231 232 235 245 253 258 240 224 187 171 158 167 180 182 173 171 179 182 180 177 179 174 167 167 170 173 172 167 162 151 154 151 138 134 129 113
239 246 247 253 251 245 240 229 225 232 233 233 243 248 229 197 151 152 151 163 174 176 172 176 181 184 179 177 176 173 169 173 176 176 170 162 159 154 154 148 144 144 136 131
227 232 242 242 244 247 246 230 216 227 236 225 231 230 216 170 175 161 144 159 181 175 171 176 180 183 182 175 171 173 173 174 176 176 169 163 159 155 155 155 154 153 145 143
222 220 231 239 242 239 235 211 210 238 235 213 227 227 207 186 196 194 172 163 165 159 156 166 174 185 181 173 167 172 175 173 175 173 166 161 158 157 159 162 159 151 147 149
210 214 221 233 241 246 240 210 203 221 222 191 213 221 210 212 176 162 158 140 133 139 147 155 172 187 180 167 164 169 169 170 163 155 153 154 157 158 158 158 153 146 143 145
207 208 216 222 231 234 210 202 209 160 99 155 171 193 182 197 142 115 116 122 125 129 142 155 168 174 168 161 162 166 166 159 146 144 148 152 153 157 157 153 153 150 150 153
218 213 212 217 222 221 185 197 169 97 24 39 59 59 199 178 112 108 118 122 131 140 144 150 158 162 160 160 164 160 155 144 140 142 147 149 149 149 150 153 156 156 157 161
232 228 229 232 226 219 206 188 172 234 259 359 15 116 162 148 131 126 134 137 142 144 142 144 148 151 151 150 150 148 143 141 144 149 150 150 154 152 151 152 158 160 167 173
237 233 239 245 243 230 200 200 200 199 228 226 119 225 147 124 138 140 148 147 147 144 140 140 149 155 157 152 145 145 145 145 147 148 155 158 156 152 150 143 144 160 160 169
241 238 235 241 242 239 225 197 205 208 243 267 267 227 168 161 157 156 163 151 150 150 146 142 147 157 161 154 145 142 145 147 149 153 159 159 154 152 148 139 115 76 93 105
Height
1503 1505 1506 1502 1500 1500 1500 1502 1502 1498 1495 1499 1502 1503 1501 1502 1505 1506 1508 1511 1514 1517 1521 1523 1526 1528 1531 1533 1535 1536 1538 1540 1541 1542 1544 1545 1545 1546 1547 1548 1549 1549 1550 1550
1502 1503 1499 1497 1497 1499 1499 1502 1502 1498 1495 1498 1501 1500 1497 1498 1500 1503 1505 1508 1511 1515 1518 1521 1525 1527 1530 1532 1535 1536 1538 1540 1541 1543 1544 1545 1546 1547 1548 1548 1549 1550 1550 1551
1499 1497 1495 1497 1498 1501 1500 1502 1503 1503 1498 1496 1500 1503 1497 1494 1497 1499 1502 1504 1507 1511 1515 1519 1522 1525 1528 1531 1534 1536 1537 1539 1541 1543 1544 1546 1546 1547 1548 1549 1550 1550 1551 1551
1494 1494 1495 1497 1498 1499 1503 1497 1498 1501 1506 1506 1501 1513 1498 1491 1494 1496 1499 1502 1505 1508 1512 1516 1520 1523 1527 1530 1533 1535 1537 1539 1540 1542 1544 1546 1546 1548 1549 1549 1550 1551 1551 1552
1493 1492 1495 1497 1497 1496 1499 1496 1497 1500 1503 1506 1500 1507 1500 1489 1494 1494 1496 1499 1502 1506 1509 1513 1517 1521 1525 1528 1531 1534 1536 1538 1540 1542 1544 1545 1547 1548 1549 1550 1550 1551 1551 1552
1490 1490 1492 1493 1493 1494 1496 1497 1496 1498 1503 1514 1500 1504 1503 1491 1490 1491 1493 1496 1500 1503 1507 1511 1515 1519 1523 1526 1529 1532 1535 1537 1539 1541 1543 1545 1546 1548 1549 1550 1551 1551 1552 1552
1492 1489 1489 1491 1494 1494 1497 1505 1514 1516 1517 1510 1490 1496 1496 1485 1485 1488 1491 1494 1497 1501 1505 1509 1513 1517 1521 1524 1528 1531 1533 1536 1538 1540 1543 1545 1546 1548 1549 1550 1551 1552 1552 1553
1494 1496 1487 1488 1492 1496 1496 1500 1515 1522 1516 1504 1493 1497 1490 1482 1485 1488 1491 1493 1496 1500 1503 1507 1511 1515 1518 1522 1525 1529 1532 1535 1537 1540 1542 1544 1546 1547 1549 1550 1551 1552 1552 1553
1488 1491 1483 1486 1489 1492 1496 1498 1495 1504 1504 1508 1498 1490 1486 1483 1486 1489 1491 1493 1495 1499 1502 1506 1509 1513 1516 1520 1524 1527 1530 1533 1536 1539 1542 1544 1546 1547 1549 1550 1551 1552 1553 1554
1480 1488 1484 1485 1488 1489 1491 1493 1498 1507 1515 1517 1503 1497 1496 1489 1488 1489 1490 1493 1495 1498 1501 1504 1508 1511 1515 1518 1522 1526 1529 1532 1535 1538 1541 1543 1545 1547 1548 1550 1551 1552 1553 1554
1479 1486 1487 1485 1489 1491 1493 1495 1496 1500 1502 1513 1515 1506 1484 1486 1486 1488 1490 1492 1494 1497 1500 1503 1506 1510 1513 1517 1521 1524 1528 1531 1534 1537 1540 1542 1544 1546 1548 1549 1551 1552 1553 1554
1477 1482 1488 1485 1481 1482 1486 1489 1493 1506 1505 1500 1508 1505 1482 1483 1485 1487 1489 1491 1493 1496 1499 1502 1505 1509 1512 1515 1519 1522 1526 1529 1532 1535 1538 1541 1543 1545 1547 1549 1550 1552 1553 1554
1479 1483 1493 1495 1492 1485 1485 1486 1489 1493 1498 1501 1507 1503 1482 1483 1485 1487 1489 1491 1493 1495 1498 1501 1504 1507 1511 1514 1517 1521 1524 1527 1531 1534 1537 1539 1542 1544 1546 1548 1550 1551 1553 1554
1480 1481 1486 1494 1489 1484 1487 1486 1486 1491 1499 1500 1497 1493 1486 1483 1484 1486 1488 1490 1493 1495 1497 1500 1503 1506 1509 1512 1516 1519 1522 1525 1529 1532 1535 1538 1540 1543 1546 1548 1550 1551 1553 1554
1480 1482 1477 1475 1475 1476 1479 1481 1483 1486 1488 1493 1489 1486 1482 1481 1482 1484 1487 1489 1492 1494 1496 1499 1501 1504 1507 1511 1514 1517 1520 1523 1527 1530 1533 1536 1539 1542 1544 1547 1549 1551 1552 1553
1478 1480 1478 1477 1473 1474 1476 1476 1477 1480 1481 1483 1483 1481 1476 1477 1480 1482 1485 1487 1490 1492 1494 1497 1500 1502 1505 1508 1511 1514 1517 1521 1524 1528 1531 1535 1538 1540 1543 1545 1547 1549 1551 1553
1478 1480 1483 1482 1474 1476 1480 1471 1472 1474 1474 1477 1481 1478 1475 1476 1478 1480 1483 1485 1487 1490 1492 1495 1497 1500 1503 1505 1509 1512 1515 1519 1522 1526 1529 1532 1536 1538 1541 1544 1546 1548 1550 1552
1478 1479 1481 1481 1481 1490 1472 1461 1463 1467 1468 1469 1471 1472 1473 1474 1477 1479 1482 1484 1486 1488 1490 1492 1495 1498 1501 1503 1506 1510 1513 1517 1520 1524 1527 1530 1533 1536 1539 1542 1544 1547 1549 1551
1472 1478 1482 1482 1484 1478 1466 1459 1460 1465 1468 1465 1467 1469 1471 1473 1476 1478 1480 1482 1484 1486 1488 1490 1493 1495 1498 1501 1504 1507 1511 1514 1518 1521 1524 1527 1530 1533 1536 1540 1542 1545 1547 1549
1468 1472 1479 1480 1484 1483 1467 1458 1458 1463 1469 1464 1465 1467 1469 1471 1477 1478 1479 1481 1482 1484 1486 1488 1490 1493 1496 1498 1501 1505 1508 1511 1514 1518 1521 1525 1528 1531 1534 1537 1540 1543 1546 1548
1470 1471 1476 1479 1480 1470 1459 1457 1458 1471 1470 1463 1464 1466 1468 1469 1473 1476 1476 1479 1481 1482 1484 1486 1488 1490 1493 1496 1499 1502 1505 1508 1512 1515 1519 1522 1526 1529 1532 1535 1538 1541 1543 1546
1463 1467 1470 1472 1477 1472 1455 1456 1459 1462 1461 1462 1464 1465 1467 1469 1471 1473 1474 1476 1479 1481 1482 1484 1486 1488 1491 1494 1497 1500 1503 1506 1509 1513 1516 1520 1524 1527 1530 1533 1536 1539 1541 1544
1453 1455 1457 1460 1462 1455 1454 1455 1458 1459 1461 1462 1463 1465 1467 1468 1470 1472 1474 1475 1477 1479 1481 1482 1484 1487 1489 1492 1495 1497 1500 1504 1507 1511 1514 1518 1521 1525 1527 1530 1533 1536 1539 1541
1448 1449 1451 1453 1452 1452 1453 1455 1457 1459 1460 1462 1463 1464 1465 1467 1469 1471 1473 1475 1476 1478 1480 1481 1483 1485 1488 1490 1493 1496 1499 1502 1505 1509 1512 1515 1519 1522 1525 1527 1530 1533 1536 1539
1448 1450 1451 1451 1449 1450 1452 1454 1456 1458 1459 1461 1462 1463 1464 1466 1468 1470 1472 1473 1475 1477 1478 1480 1482 1484 1486 1489 1492 1495 1498 1500 1503 1507 1510 1513 1516 1519 1522 1525 1528 1530 1533 1536
1446 1447 1450 1450 1449 1450 1451 1452 1454 1457 1458 1460 1461 1462 1464 1465 1467 1469 1470 1472 1473 1475 1477 1478 1480 1482 1485 1487 1490 1493 1496 1498 1501 1504 1507 1511 1513 1517 1520 1523 1526 1529 1531 1534